Wind_Speed
63 63 62 62 62 61 61 61 61 61 61 62 63 64 65 66 67 68 68 69 69 68 67 67 66 66 65 65 65 66 66 66 67 67 70 70 66 64 64 64 67 70 72 74 74 73 71 70 69 68 68 67 66 65 63 62 61 60 59 59 60 62 61 58 56 55 53 54 54 53 52 52 52 52 52 52 52 52 52 52 52 52 52 51 51 51 50 49
61 62 62 62 61 61 61 61 61 61 61 61 61 62 64 65 65 66 67 68 68 69 69 68 68 67 66 66 66 66 66 66 66 68 72 69 65 65 64 63 64 66 68 71 73 74 73 71 70 69 68 68 67 66 65 64 63 61 61 61 63 64 61 58 57 56 55 55 54 54 53 53 52 52 52 52 52 52 52 52 52 51 51 51 50 50 49 48
58 59 59 60 60 60 60 61 61 61 61 60 61 61 63 64 65 65 65 66 66 67 68 68 69 68 68 68 67 67 67 66 66 69 72 69 66 66 65 64 64 65 65 67 70 72 73 73 72 70 70 69 69 68 67 66 65 64 63 64 66 65 61 58 57 56 56 56 55 54 54 53 53 53 53 53 53 53 53 53 52 51 51 50 50 48 48 47
57 58 58 59 59 59 59 60 60 60 60 60 60 61 62 64 65 65 65 64 65 65 66 67 67 68 68 68 69 68 68 67 67 70 72 69 67 67 66 65 65 65 64 63 65 68 71 73 73 72 71 70 69 69 68 67 67 66 66 67 68 66 61 60 58 58 57 56 55 55 54 54 54 53 53 53 53 54 53 53 52 51 51 50 49 47 47 46
59 59 60 60 60 60 60 60 60 60 60 60 60 61 61 63 65 66 66 65 65 64 64 65 65 66 67 68 69 69 69 69 69 71 73 70 67 66 66 66 66 66 64 63 63 64 67 71 73 74 73 71 70 70 69 69 68 68 69 70 70 66 62 61 59 59 58 57 56 56 55 55 54 54 54 54 54 53 53 53 52 51 50 49 48 47 46 45
59 60 61 62 62 62 62 62 61 61 61 60 60 60 61 61 63 65 66 67 66 65 64 64 64 64 65 66 67 68 69 69 70 72 73 71 68 66 66 66 66 67 65 64 63 63 64 67 71 74 74 74 72 71 70 70 69 70 71 72 70 66 63 62 61 60 59 58 57 57 56 56 55 55 55 55 54 54 54 53 52 51 50 48 47 47 46 45
59 60 61 62 63 63 64 64 64 64 63 62 61 60 60 61 61 63 65 66 66 66 65 65 64 64 64 65 65 66 66 68 70 73 74 72 69 68 66 66 66 67 66 65 64 63 63 64 67 71 74 75 74 73 71 71 70 70 72 72 70 66 64 63 62 61 60 59 59 58 57 57 56 56 56 56 55 54 54 54 53 51 49 48 48 47 46 45
61 62 62 63 63 64 65 65 65 65 66 65 64 63 62 61 61 61 63 64 65 66 65 65 65 64 65 64 65 65 64 68 70 72 74 74 72 69 67 66 66 67 66 66 65 64 63 63 63 66 71 74 76 75 73 72 71 72 73 72 69 67 65 64 63 62 61 60 60 59 58 58 57 57 57 56 55 55 55 54 52 50 49 49 48 47 46 44
65 65 65 65 66 66 66 66 66 67 67 67 67 67 65 64 63 62 62 63 64 65 65 65 65 65 65 64 65 64 65 70 71 69 72 73 73 71 69 67 66 67 67 66 65 64 63 63 64 65 67 71 75 75 74 73 72 73 74 72 69 66 65 64 64 63 62 61 60 60 59 59 58 58 58 57 56 55 55 54 52 50 49 49 49 47 44 43
67 68 69 69 69 69 69 68 68 68 68 68 69 69 69 68 66 65 64 63 64 64 65 65 65 66 65 64 65 63 66 72 71 69 70 71 73 72 70 69 68 67 67 66 65 65 65 65 65 65 64 66 70 72 74 73 73 74 74 72 68 66 64 63 63 62 62 61 61 61 60 59 59 60 60 57 56 55 55 54 53 50 49 49 48 45 44 43
68 69 70 71 72 72 73 72 72 71 70 70 70 70 70 70 70 68 67 66 66 66 66 66 67 67 66 65 64 63 68 73 71 70 70 70 71 72 72 71 69 69 68 67 66 66 66 66 64 64 63 63 65 68 71 74 74 75 74 72 69 66 64 63 62 62 62 61 61 60 60 59 60 61 58 56 55 54 55 54 51 49 48 48 46 44 43 43
69 70 71 72 73 74 75 75 75 74 73 72 71 71 71 71 71 71 70 69 69 69 69 69 69 68 67 65 63 66 71 72 70 69 69 70 70 70 71 71 71 70 69 68 67 66 66 65 64 64 63 63 63 64 66 71 74 75 74 72 69 66 65 64 64 63 63 62 61 60 59 60 60 59 55 53 53 54 53 52 49 48 47 47 45 44 43 43
70 72 73 74 75 76 77 78 78 77 77 76 74 73 72 72 73 72 72 71 71 71 70 70 69 69 68 64 65 69 71 70 70 69 69 70 70 70 70 71 72 72 71 69 67 65 65 64 64 64 63 64 63 61 62 65 70 75 75 73 69 67 66 66 65 65 64 63 62 61 61 60 59 56 53 52 52 52 51 49 47 47 47 46 44 44 44 43
72 74 75 76 77 78 79 79 79 79 79 78 77 76 75 74 73 73 73 73 73 72 71 70 69 69 66 65 69 71 69 70 70 69 70 70 71 70 70 70 72 73 72 70 68 66 65 65 64 63 63 63 62 61 61 62 66 71 73 73 70 68 68 67 66 65 65 64 63 62 63 60 58 55 53 52 51 51 49 47 47 47 46 45 44 44 44 43
73 75 77 78 79 79 80 80 81 81 81 80 80 79 78 76 75 74 74 75 74 73 72 71 70 68 65 66 71 71 69 70 70 71 70 69 70 70 70 71 72 73 73 71 69 67 66 65 65 64 64 64 62 62 61 61 63 66 69 70 70 70 68 67 67 67 66 65 63 63 63 59 57 55 52 51 51 50 48 47 47 46 45 45 45 45 44 45
73 74 75 76 76 77 78 79 80 81 81 81 81 80 79 78 77 76 75 75 75 75 74 73 71 69 66 68 71 71 70 71 72 71 69 68 70 70 70 70 71 72 73 72 70 69 67 66 65 64 64 64 63 63 62 61 61 62 64 65 67 69 69 68 68 67 66 65 63 64 62 58 56 54 52 51 50 48 47 46 46 45 46 46 45 45 45 46
71 71 72 73 73 74 75 76 78 79 80 81 81 81 81 80 79 78 77 75 75 75 75 74 73 71 69 70 72 72 71 72 72 71 69 68 68 69 69 69 71 71 71 72 72 70 68 66 65 64 64 63 63 62 61 60 60 60 61 60 63 66 67 68 68 66 65 64 64 63 61 58 56 53 51 50 49 48 47 46 46 46 47 47 46 45 46 46
67 68 68 68 69 71 72 73 74 76 77 78 79 80 81 81 81 79 78 77 76 75 74 75 76 75 73 74 74 73 73 73 73 71 69 69 68 68 68 69 71 71 71 72 72 71 68 66 66 65 63 62 61 60 60 60 59 60 60 59 60 63 65 67 66 65 64 63 63 62 61 59 55 52 51 50 48 47 46 47 47 48 49 47 46 46 47 46
64 64 63 62 63 65 68 69 71 72 74 75 76 78 80 81 81 80 79 78 77 76 75 75 76 77 77 77 76 75 75 74 74 72 70 69 68 68 68 69 70 70 70 71 72 72 69 67 66 63 61 60 60 60 60 60 60 60 60 59 60 62 64 65 64 63 63 63 62 61 61 58 54 52 51 49 47 46 47 48 48 49 49 48 47 47 47 46
60 59 57 56 58 60 63 65 66 67 69 71 73 75 77 79 80 80 80 79 79 78 76 75 76 78 79 79 78 78 76 75 74 73 71 70 69 68 68 68 69 69 70 70 72 72 70 68 65 62 60 59 60 61 61 60 60 61 61 60 60 60 63 64 64 63 62 61 60 59 60 57 53 52 50 48 47 47 48 49 50 50 50 48 48 48 47 46
56 54 53 52 54 55 57 59 61 62 64 67 70 73 74 76 77 78 79 79 80 78 77 76 76 77 78 80 81 80 77 76 75 73 72 71 69 68 67 67 67 68 69 71 72 72 72 68 65 62 61 61 62 62 61 61 61 62 61 60 60 60 61 62 64 64 63 61 59 59 59 55 52 50 48 47 48 48 50 50 50 50 50 49 48 48 47 46
52 50 50 49 50 50 51 53 55 57 59 62 66 69 72 73 74 75 76 77 78 78 77 76 75 76 78 80 82 81 79 77 76 74 72 70 69 68 67 66 66 68 70 71 72 72 71 68 66 64 63 63 63 63 62 62 62 62 61 60 60 59 58 60 62 63 63 61 59 59 58 54 52 48 46 48 49 50 51 50 50 51 52 50 49 48 47 46
50 47 47 46 46 46 46 48 50 52 55 58 62 65 68 70 71 72 73 74 75 75 75 74 75 76 77 79 80 80 79 78 76 74 71 70 69 68 67 66 66 68 69 71 72 72 71 69 68 66 65 64 63 62 61 61 61 61 61 60 60 59 58 59 60 61 62 61 60 59 58 55 51 47 46 49 50 50 51 51 51 52 52 51 50 48 47 46
49 45 45 44 43 42 43 44 45 47 50 53 58 61 64 66 68 68 69 70 71 72 72 73 73 75 76 77 77 76 77 77 75 73 71 70 69 68 68 67 67 68 69 71 72 72 73 72 69 68 68 66 63 61 61 60 60 60 60 60 59 58 59 59 58 59 60 62 62 61 58 55 50 47 47 50 50 50 51 51 52 53 52 51 50 48 47 46
48 44 43 42 40 40 40 41 42 43 45 48 52 56 59 61 62 64 65 66 68 69 70 71 72 74 74 73 72 72 74 74 73 71 70 69 68 68 69 68 68 68 70 72 73 74 74 72 71 72 70 67 65 63 61 60 60 59 60 60 59 59 59 58 57 58 58 61 63 63 59 54 50 48 48 49 50 50 51 52 53 53 53 52 50 48 47 46
46 42 41 40 38 38 38 39 40 41 42 44 46 50 53 55 57 58 60 63 65 66 67 68 70 72 71 68 68 71 72 71 71 70 69 69 68 68 69 68 68 68 71 73 75 76 74 73 73 73 71 69 68 66 64 62 61 60 60 60 60 60 59 57 57 57 57 60 64 64 60 55 52 51 49 50 50 51 52 53 54 54 53 52 50 49 47 46
45 41 39 38 37 36 36 37 38 38 39 41 43 46 48 50 52 54 56 59 61 63 64 66 68 69 66 66 68 69 69 69 69 69 68 69 68 68 68 68 68 69 71 74 75 75 73 73 74 72 71 70 69 67 65 64 62 61 60 60 60 60 59 58 58 57 56 59 63 64 60 57 56 53 51 51 51 52 53 54 54 54 53 52 51 50 48 47
43 40 38 37 36 35 35 35 35 35 37 38 40 43 45 48 50 51 54 56 58 60 61 63 66 66 65 66 67 67 67 68 68 68 69 69 68 68 68 68 67 69 72 74 74 73 73 74 73 71 71 70 69 68 66 65 64 62 61 61 61 60 60 59 59 58 56 57 61 61 60 59 58 55 53 52 52 53 53 53 54 54 53 52 51 50 49 48
41 38 37 36 35 34 33 32 32 33 34 36 39 42 44 46 47 49 52 54 57 59 60 63 65 65 65 65 66 66 68 69 68 68 69 68 67 67 67 66 67 70 73 74 74 74 75 75 74 72 71 70 70 69 68 67 65 63 63 62 62 61 60 60 59 57 56 56 57 58 59 62 61 57 54 53 53 54 53 53 54 54 54 53 52 51 50 49
40 37 36 35 33 32 31 31 32 33 35 38 42 45 46 47 46 47 49 51 54 57 59 62 64 63 63 64 64 66 67 66 65 66 66 66 66 66 66 67 69 71 73 75 75 75 77 78 76 75 74 73 73 72 71 69 66 65 65 63 62 62 61 60 59 57 56 56 55 55 58 62 63 60 56 54 54 55 54 53 53 54 54 53 52 52 51 50
38 36 35 34 32 31 31 32 34 35 37 41 46 48 48 49 48 48 48 49 53 55 57 59 60 60 60 62 63 64 63 61 61 63 63 63 64 65 66 67 70 71 73 75 73 74 78 79 77 75 75 74 74 73 71 69 68 67 65 63 63 63 62 62 60 57 56 55 54 54 57 61 64 62 57 55 55 55 54 53 53 54 54 54 53 52 52 50
37 35 34 32 31 30 31 33 35 37 38 42 45 46 47 49 49 50 50 51 54 55 56 57 57 58 59 62 63 62 59 58 59 59 59 59 60 61 63 64 66 67 69 70 70 73 77 78 76 75 74 73 72 70 68 67 66 66 64 63 63 63 63 62 59 55 54 55 54 54 56 59 63 62 58 56 55 54 54 53 53 54 54 54 54 53 52 50
36 35 33 31 30 30 32 34 37 38 38 39 41 41 42 45 47 50 52 54 56 56 55 55 56 57 58 60 60 59 57 57 57 57 57 58 59 60 61 62 64 65 67 68 68 72 76 76 75 74 72 71 69 66 64 63 62 62 61 61 61 62 62 60 56 53 54 54 53 54 56 57 61 62 58 56 55 55 55 54 54 55 55 55 54 53 52 50
35 34 32 30 30 30 32 35 37 36 35 34 35 36 37 40 43 46 50 55 58 58 57 56 56 57 58 58 57 55 54 55 56 56 57 57 59 59 60 61 63 65 68 69 69 72 73 72 72 70 69 68 66 63 61 61 61 60 60 60 60 61 60 57 55 54 54 54 53 55 56 56 59 61 58 56 56 56 55 55 55 56 56 56 54 53 51 49
34 32 30 29 29 31 33 35 35 34 31 30 31 32 33 35 39 43 48 53 57 59 59 57 56 57 57 56 54 53 54 54 54 55 56 57 57 57 57 59 62 64 67 68 68 70 71 71 70 68 67 66 64 62 60 61 61 60 60 60 61 61 60 58 56 56 55 55 55 56 55 54 57 59 58 56 57 56 56 56 57 57 57 56 54 53 51 50
33 30 29 29 30 31 33 33 33 30 27 26 26 27 29 32 37 42 47 51 54 58 60 60 60 59 57 55 53 53 54 54 53 54 56 56 57 56 57 59 61 64 66 66 66 68 70 71 70 68 67 67 66 64 62 62 62 59 59 59 60 61 58 56 56 56 56 56 56 56 55 54 55 57 58 58 58 57 57 57 58 58 58 56 55 53 51 51
30 28 28 29 30 30 31 31 29 26 23 22 22 23 26 30 35 40 44 48 51 56 61 63 62 59 56 54 53 53 53 53 53 54 54 55 55 56 57 58 62 65 66 65 65 67 69 70 69 69 69 68 67 66 66 65 62 59 58 57 57 58 57 57 58 57 56 57 57 55 54 53 55 57 58 58 58 58 59 59 59 60 58 56 55 53 51 51
28 27 27 28 29 29 29 28 25 22 20 20 21 23 26 30 34 38 42 45 49 54 60 63 62 57 55 54 54 54 53 52 53 53 53 54 54 54 55 58 63 65 66 65 65 67 69 69 70 70 69 69 69 69 67 65 62 60 58 56 55 56 56 58 58 56 56 56 54 53 52 53 55 57 57 58 58 59 60 60 60 60 58 56 55 53 52 52
26 26 27 27 27 27 27 24 20 19 19 20 22 25 27 30 33 37 40 43 47 52 58 62 61 57 55 55 55 55 54 53 53 53 53 53 53 54 55 59 62 64 65 66 66 67 68 69 70 70 70 70 70 68 65 62 61 59 56 55 55 56 58 58 57 55 55 54 53 53 53 53 55 56 57 58 59 60 60 60 60 60 58 56 55 53 52 53
25 26 26 25 26 25 22 19 17 18 19 21 23 25 28 30 33 36 38 41 45 50 56 60 61 58 56 55 55 56 55 55 55 54 53 53 53 53 54 57 61 63 64 65 66 67 68 69 69 69 69 69 67 64 62 60 59 57 54 53 54 55 56 56 56 55 55 54 54 54 54 55 56 58 58 58 59 61 61 59 60 59 57 56 55 53 53 53
24 24 24 24 24 22 18 16 16 17 19 21 23 25 27 30 32 35 37 40 43 48 53 58 61 59 56 54 53 54 56 56 56 54 53 53 52 52 53 56 59 61 63 64 65 66 66 67 67 67 67 65 62 61 60 58 57 55 55 53 53 53 53 53 55 56 55 56 56 56 57 57 58 59 59 59 60 61 59 59 59 59 57 56 54 53 54 54
22 22 21 22 21 18 14 13 14 16 18 20 21 23 25 27 30 33 36 39 42 46 51 56 60 59 56 54 52 52 54 55 55 54 52 51 51 51 53 55 57 59 62 63 64 63 64 65 64 63 63 61 59 58 58 58 56 56 57 55 55 55 54 54 55 55 56 57 58 59 59 58 58 59 58 58 59 58 57 58 59 59 57 56 54 54 55 54
20 19 19 19 17 13 12 12 14 15 17 19 22 24 26 28 30 32 34 36 39 43 48 54 58 59 57 55 53 52 52 53 54 54 53 51 51 53 54 54 55 57 58 59 59 59 60 61 59 58 59 59 59 58 58 58 58 58 57 55 56 56 55 56 56 56 57 59 58 58 57 56 57 57 57 58 58 58 58 59 59 59 57 56 55 56 56 54
18 17 17 15 12 10 11 13 14 16 19 22 25 27 29 30 30 30 31 33 36 40 46 52 57 58 57 55 53 52 51 52 53 53 52 51 52 52 52 52 52 53 54 55 54 54 55 55 54 54 56 56 56 57 57 58 57 57 55 53 54 54 55 56 56 57 58 58 57 58 56 55 57 58 57 57 58 59 60 60 59 59 57 57 57 57 56 55
16 15 14 11 10 11 13 16 18 20 23 26 28 29 30 30 31 30 31 32 34 38 43 49 54 56 56 54 52 52 51 52 53 53 52 52 52 51 50 50 50 50 51 51 50 50 51 50 50 50 50 50 50 51 52 53 53 52 52 52 53 53 54 55 55 56 57 56 57 57 56 56 58 58 57 57 57 59 59 59 60 59 58 58 58 58 57 57
14 14 12 10 12 14 17 20 22 24 27 28 30 32 32 32 33 32 32 32 34 37 42 47 52 55 55 53 52 51 52 53 55 55 55 54 52 50 49 49 48 49 48 47 47 47 47 47 47 48 48 49 49 48 48 49 50 51 51 52 52 52 52 52 54 55 56 56 56 56 55 56 58 57 57 57 57 59 59 60 60 60 59 60 59 58 58 57
12 11 11 13 15 17 20 23 25 27 30 32 34 36 37 36 36 36 36 35 36 38 40 44 50 54 54 54 53 52 52 53 54 55 54 53 51 50 49 48 48 47 46 45 45 45 45 45 46 47 48 48 49 49 50 51 51 51 52 52 53 53 53 54 56 56 56 56 56 56 56 56 57 56 56 57 58 59 60 60 60 60 60 60 60 59 59 58
10 10 12 15 18 21 24 26 27 30 33 37 40 42 42 41 39 39 39 38 38 38 39 41 45 50 53 54 54 52 51 51 52 52 53 52 50 49 48 48 47 46 44 44 44 44 45 45 45 45 46 46 48 49 51 52 52 52 52 52 53 54 55 57 58 56 56 56 56 57 57 56 56 56 56 58 59 60 61 61 61 61 61 61 61 60 59 57
11 14 18 19 21 24 27 28 30 32 36 40 45 47 47 46 43 42 42 41 41 41 40 39 40 44 48 51 52 51 49 49 49 50 51 51 49 48 48 47 46 45 44 44 44 44 44 45 45 45 45 46 48 49 50 51 52 52 52 52 53 54 56 57 57 55 55 55 56 57 56 56 57 57 57 58 59 60 61 62 62 62 62 62 62 61 59 58
14 19 22 23 24 27 30 31 33 35 39 44 48 49 51 50 47 46 46 44 45 45 43 41 40 40 42 46 49 50 50 51 51 51 50 51 50 48 48 47 45 45 44 44 45 44 44 45 45 46 46 47 48 48 49 49 50 51 52 52 53 54 54 54 53 53 54 55 56 57 56 57 57 57 58 59 59 60 62 62 63 63 63 62 62 61 60 60
19 23 26 27 28 29 32 34 35 37 41 47 48 47 50 54 51 49 48 46 46 48 47 45 43 42 42 43 46 50 51 51 53 52 50 51 51 49 48 47 47 46 46 46 46 46 46 45 45 46 47 48 48 47 48 48 49 50 52 52 53 53 53 53 53 54 55 56 56 57 57 58 58 58 59 60 61 62 62 63 63 63 63 63 62 62 62 61
25 26 28 29 31 33 35 36 37 39 44 49 48 43 45 53 55 52 50 48 47 50 52 50 46 44 43 42 43 45 47 47 49 50 49 49 51 50 48 47 47 47 47 46 46 45 45 44 44 45 46 47 48 48 49 50 51 52 53 53 53 53 54 54 55 55 56 57 57 57 58 59 59 59 59 60 61 62 63 63 63 63 64 64 64 64 63 62
Wind_Direction
262 262 262 262 262 262 262 261 260 259 258 257 256 254 253 252 251 250 249 247 246 244 244 243 242 242 242 242 243 244 244 244 244 244 244 242 240 240 240 240 240 239 238 238 237 237 236 237 237 238 238 238 239 239 239 239 239 239 240 240 241 241 242 242 243 243 244 245 246 247 248 249 250 252 253 255 256 256 257 257 257 258 259 260 261 263 265 267
262 262 261 261 261 261 262 262 261 260 259 257 256 254 252 251 250 249 248 248 247 246 245 243 242 241 241 240 240 241 242 242 243 244 244 242 240 240 239 239 239 239 238 237 237 236 236 236 237 237 238 238 238 238 238 238 238 239 239 239 240 241 242 242 243 243 244 245 246 247 248 249 250 252 253 255 256 257 257 258 258 259 261 262 263 264 266 267
264 263 262 262 261 261 261 262 261 261 260 259 257 254 252 250 248 247 247 247 247 246 246 245 243 242 241 240 239 239 239 240 240 242 243 243 241 240 240 239 239 239 238 237 237 236 235 235 235 236 236 237 237 237 237 237 237 238 238 239 240 241 241 242 242 243 244 245 246 247 248 249 250 252 253 254 256 257 257 258 259 260 261 263 264 265 267 269
265 264 263 263 262 261 261 261 261 261 260 259 257 255 252 250 248 246 245 245 245 245 245 245 244 243 242 241 240 239 239 238 238 240 243 242 241 240 240 239 239 239 238 237 237 236 235 235 235 235 235 236 236 236 236 236 237 237 238 238 240 240 241 241 242 243 244 244 246 247 248 249 250 252 253 254 255 257 258 259 260 261 262 263 265 266 268 269
266 265 264 263 262 262 261 260 260 260 260 258 257 255 253 250 248 246 245 244 243 243 244 244 244 244 244 243 242 240 239 238 237 240 241 241 240 240 240 239 239 239 238 237 237 236 235 234 234 234 235 235 235 235 235 236 236 236 237 238 239 240 240 241 242 242 243 244 245 247 248 249 250 251 253 254 255 257 258 259 260 261 262 264 265 267 268 269
267 266 266 265 264 262 261 260 259 258 258 257 256 254 253 251 249 248 246 244 243 242 242 243 243 244 244 244 243 242 241 239 238 239 240 240 239 239 239 238 239 239 238 237 236 236 235 234 233 233 233 234 234 234 234 235 235 236 237 238 239 240 240 241 241 242 243 244 245 246 247 249 250 251 253 254 255 257 258 259 260 261 263 265 266 267 267 268
268 267 266 266 265 263 262 260 258 257 256 255 254 253 253 252 250 248 247 245 244 243 242 242 243 243 243 244 244 243 242 241 240 240 240 238 237 236 237 237 238 238 237 236 236 235 235 234 233 233 233 233 233 233 233 234 235 236 237 239 239 240 240 241 241 242 243 244 245 246 247 249 250 251 253 254 256 257 259 260 261 262 264 265 266 266 267 269
267 266 266 265 265 264 263 261 259 257 256 254 253 252 251 250 250 249 247 246 245 244 243 243 242 243 243 243 244 243 243 243 240 240 240 238 236 235 235 235 236 237 237 236 235 235 235 235 234 233 233 233 233 233 233 233 234 235 236 238 238 239 240 240 241 242 243 244 245 246 247 249 250 251 253 254 256 257 259 260 261 263 264 265 266 267 268 270
267 266 265 264 264 263 263 262 260 258 256 254 253 251 250 249 248 248 247 246 245 244 244 243 242 242 243 243 244 243 244 244 241 240 241 239 237 234 233 233 234 236 236 235 235 234 234 235 234 233 232 232 232 232 232 233 234 235 236 237 238 238 239 240 241 242 243 244 245 246 247 249 250 251 252 253 255 257 259 261 262 263 264 265 266 267 269 270
267 266 265 264 263 263 262 261 260 259 257 255 253 252 250 249 247 246 246 245 245 244 243 243 243 243 243 243 244 244 244 244 242 240 241 240 238 235 233 232 232 234 235 235 234 233 233 233 234 234 233 233 233 232 232 233 234 235 237 237 237 238 238 240 241 242 243 244 245 246 247 249 250 251 252 253 255 257 259 260 261 262 264 265 266 268 269 269
267 266 265 264 263 262 261 260 259 258 257 255 253 252 251 249 248 246 245 244 244 243 243 243 243 243 243 243 244 244 244 244 242 241 241 241 239 237 234 231 231 232 233 234 233 232 232 233 234 234 234 234 233 232 232 232 233 235 236 237 237 237 238 239 240 241 242 243 244 245 246 248 249 250 251 253 255 257 258 259 261 263 264 264 266 267 267 268
267 266 264 263 262 261 260 259 258 257 256 255 253 252 251 250 249 247 246 245 244 244 243 243 244 244 244 244 243 243 243 244 243 241 241 240 240 238 235 232 231 230 231 232 232 232 232 232 232 233 233 234 233 233 232 232 233 234 236 236 236 236 237 238 238 239 240 242 243 244 245 246 247 249 250 252 253 255 256 258 260 261 262 263 264 265 265 266
268 267 265 263 262 261 259 258 257 256 255 254 253 252 250 249 248 248 247 246 245 245 244 244 244 244 244 243 243 242 242 243 243 241 240 240 239 238 237 234 231 230 230 230 231 231 231 231 230 231 232 234 234 233 233 232 233 234 235 235 235 235 236 237 237 238 239 240 241 242 243 244 246 248 249 250 252 253 255 257 258 258 259 260 261 262 263 263
269 268 267 265 263 261 259 258 256 255 254 253 252 251 250 249 248 247 247 246 246 246 245 245 245 244 244 243 242 242 241 242 242 241 240 239 238 237 237 235 233 231 230 229 229 229 230 229 229 229 230 232 233 233 233 232 232 233 234 234 234 235 235 236 237 238 239 240 241 242 243 243 245 246 248 249 251 252 254 255 256 257 257 258 259 260 261 261
271 270 268 267 265 263 261 259 257 255 254 252 252 251 250 249 248 247 246 246 246 245 245 245 245 244 243 242 242 241 240 241 241 241 239 239 239 237 236 236 234 232 230 228 228 228 228 229 228 228 228 230 231 232 232 232 233 233 234 233 233 234 235 236 237 237 238 239 240 241 242 243 244 245 246 248 250 251 253 253 254 255 256 256 257 259 260 260
274 272 271 269 267 265 262 260 258 256 254 252 251 250 249 248 248 247 246 246 245 245 245 245 245 244 243 242 242 241 240 240 241 240 239 239 239 238 236 236 235 233 231 228 227 227 227 228 228 228 228 229 230 231 232 232 233 234 234 233 233 233 234 235 236 237 238 239 239 241 242 242 243 244 245 246 248 249 250 251 252 253 253 254 256 258 259 260
276 274 272 270 268 266 263 260 258 256 254 252 251 249 248 248 247 246 246 245 245 244 244 244 244 243 242 242 241 240 240 240 241 241 240 239 239 238 237 236 235 234 232 229 227 226 226 226 227 227 227 228 229 231 232 233 233 234 235 234 233 233 233 234 235 236 237 238 239 240 242 242 242 243 243 244 246 248 248 249 251 251 251 252 254 256 258 260
277 275 273 271 268 265 263 260 258 255 253 251 250 249 248 247 246 246 245 245 245 244 243 243 242 242 241 241 241 240 240 240 241 240 240 239 238 238 237 235 235 234 232 230 228 226 226 225 226 226 226 227 228 229 231 232 233 234 234 233 233 232 231 232 234 235 236 238 239 240 241 241 241 242 242 243 245 246 247 248 248 249 250 251 253 255 258 261
278 277 274 271 268 265 263 261 258 255 253 251 249 248 247 246 245 244 244 244 244 244 243 242 241 240 240 240 240 240 240 240 240 240 239 239 238 237 236 235 234 233 232 230 228 226 225 225 225 225 225 226 226 227 228 230 231 232 233 232 231 230 230 230 232 234 236 237 238 240 241 240 240 240 241 242 243 244 245 246 247 248 249 251 253 255 258 261
280 278 275 272 270 267 264 261 258 255 252 250 248 247 246 245 244 244 243 243 243 243 243 242 241 240 239 239 240 240 240 240 240 239 239 238 238 237 236 235 233 232 232 230 229 227 225 225 224 223 223 223 223 224 225 227 228 230 231 231 231 230 230 229 230 231 233 235 237 239 240 240 238 239 240 241 242 242 243 245 246 247 249 250 252 254 258 261
281 279 277 275 273 269 265 262 258 255 252 249 247 245 244 244 243 242 242 242 242 242 242 242 241 240 240 239 239 239 240 240 239 239 238 238 237 237 236 235 233 232 231 230 228 226 225 225 224 223 221 221 221 222 222 224 226 228 230 230 230 230 230 230 229 230 232 234 235 237 239 239 237 237 238 239 240 240 242 244 245 246 248 249 251 254 257 261
283 280 278 278 275 271 267 263 259 255 251 248 246 245 243 242 242 241 241 240 241 240 240 240 240 240 239 238 238 238 239 239 239 238 237 237 237 237 236 234 233 232 230 229 227 226 224 224 224 223 222 221 221 221 221 222 224 227 228 229 230 230 230 231 230 231 232 232 233 236 237 237 235 234 235 237 239 240 242 244 245 245 247 249 251 254 256 260
284 281 280 279 276 272 268 264 260 255 251 248 246 244 242 242 241 240 240 239 239 239 239 239 239 238 238 238 237 237 238 238 238 238 237 236 236 235 235 233 232 231 230 228 227 225 223 223 224 224 223 222 221 221 221 222 224 226 228 229 229 230 230 230 231 231 231 231 232 234 235 235 234 232 233 237 239 241 243 244 244 245 247 249 251 253 255 259
284 282 281 280 277 273 269 265 261 256 252 248 246 244 242 241 240 239 239 238 238 237 237 237 237 238 238 237 237 237 237 238 238 237 236 236 235 234 233 232 230 229 228 226 225 224 222 221 222 223 224 223 222 221 221 221 223 226 227 228 229 230 230 230 231 231 231 230 230 233 234 234 233 231 232 236 239 242 244 244 244 245 247 249 251 253 255 259
284 282 281 279 277 273 269 265 261 256 252 249 246 244 243 242 240 239 238 237 237 236 235 235 236 236 236 236 236 237 237 237 237 236 236 235 234 233 232 230 228 227 225 223 223 222 221 220 221 222 223 223 223 222 221 221 222 225 227 228 228 229 230 231 231 231 231 230 230 231 232 232 232 231 232 235 239 242 243 244 244 245 247 249 251 253 255 259
283 282 281 279 276 273 269 264 259 255 253 250 247 245 244 242 241 239 237 236 235 234 233 233 234 234 234 234 234 235 235 234 234 234 234 233 232 231 230 229 227 225 223 221 220 220 219 219 221 223 224 223 223 222 222 221 222 224 226 226 227 228 229 230 231 231 230 230 230 231 231 231 231 231 232 234 238 241 243 243 243 245 247 249 251 254 256 258
282 281 280 278 274 271 267 263 259 255 253 250 248 246 244 242 239 237 236 235 233 232 231 231 232 232 232 232 232 233 233 233 232 232 231 231 230 229 228 227 225 223 221 219 219 219 218 218 220 222 224 225 225 224 223 222 223 224 225 226 226 227 228 228 229 230 230 229 230 230 229 230 230 230 231 233 237 241 242 242 243 245 247 249 252 254 256 258
281 280 279 276 273 269 266 262 258 255 253 251 248 246 243 241 238 235 234 232 231 230 229 229 230 230 230 230 231 232 232 231 231 230 229 228 227 226 225 224 223 221 218 217 218 218 217 217 219 221 224 226 227 227 226 225 224 224 225 226 226 226 226 227 228 229 230 230 230 230 229 229 230 230 230 233 238 241 242 242 243 245 247 250 252 254 256 259
279 279 277 275 271 267 264 261 258 255 253 252 250 247 244 240 237 233 231 230 229 228 227 227 227 227 228 229 229 230 230 229 228 227 226 224 223 222 221 220 219 218 216 215 215 215 215 216 217 219 221 224 226 227 227 227 226 226 226 225 225 225 226 227 228 229 230 231 231 230 228 228 230 229 229 233 237 241 242 242 243 244 247 249 252 254 257 259
277 277 275 273 269 266 263 261 259 257 255 254 252 248 244 241 236 232 229 227 226 225 224 225 225 224 225 226 226 227 227 226 225 224 223 220 219 218 218 217 215 214 214 215 214 213 213 214 215 217 220 222 224 226 227 226 226 226 226 226 225 225 225 227 228 228 229 231 231 231 228 228 230 229 228 232 237 239 241 242 243 244 246 248 251 254 257 259
275 275 273 271 268 266 265 265 264 261 259 257 253 248 244 241 236 232 227 224 224 223 221 221 222 221 220 221 222 222 222 222 221 221 219 218 216 215 215 214 213 213 213 214 214 213 213 214 214 217 220 223 225 226 226 225 225 225 225 226 226 226 225 226 227 227 228 230 231 231 229 228 230 229 228 232 236 239 240 242 243 244 246 248 251 254 257 259
273 272 271 269 268 268 269 270 270 267 264 260 255 249 244 240 236 231 226 222 221 220 219 218 218 217 216 216 217 217 217 217 217 216 215 215 215 214 214 213 213 214 215 215 214 213 214 214 214 216 219 223 225 226 227 227 226 226 225 226 226 226 226 227 228 227 228 230 230 232 231 228 229 229 228 231 236 239 241 242 243 244 245 248 250 253 256 259
270 269 269 269 270 271 273 274 274 271 267 260 255 248 242 237 232 229 224 221 220 218 217 216 215 214 215 215 215 213 212 212 212 212 211 210 210 211 212 213 213 213 214 215 214 213 214 214 215 217 219 222 225 226 227 228 228 228 227 227 227 227 227 228 228 227 228 229 230 232 232 230 229 229 229 231 236 238 240 241 242 243 245 247 250 253 256 259
267 267 269 269 271 273 276 277 277 274 267 259 252 246 238 232 227 223 220 218 217 215 213 213 212 212 213 214 214 211 210 210 208 207 207 207 208 209 210 212 212 212 211 212 212 213 214 214 215 218 220 223 225 226 227 228 228 227 227 227 227 227 227 226 225 225 226 227 229 231 232 231 230 229 229 231 235 237 239 240 240 242 244 246 249 253 255 259
264 266 268 270 272 275 277 280 280 275 266 256 249 242 236 228 221 216 214 214 213 211 209 209 209 209 210 211 210 208 207 207 206 205 204 205 207 209 210 210 211 211 211 210 210 211 212 212 214 217 219 222 224 226 227 228 228 227 226 225 225 225 225 223 222 223 224 225 228 230 232 232 230 228 228 231 235 237 238 238 239 241 243 246 249 252 255 258
262 264 267 270 273 276 280 283 281 273 263 254 245 238 232 224 217 213 211 210 209 208 206 205 206 206 206 206 206 206 205 204 204 204 204 205 205 206 207 208 208 208 209 210 210 209 209 210 212 214 217 220 223 224 226 228 229 229 229 227 225 224 223 222 222 223 224 225 227 229 230 231 229 227 228 231 234 236 236 237 238 240 243 245 248 251 254 258
260 263 266 269 272 278 283 284 277 268 260 250 239 230 224 218 213 211 209 207 205 204 203 203 204 204 203 202 202 203 203 202 202 203 204 205 205 205 205 205 206 206 207 208 208 209 209 210 211 213 216 218 221 223 225 226 226 227 228 227 225 224 222 222 222 222 224 226 227 228 230 231 229 227 227 231 234 235 235 235 237 240 242 245 248 251 254 257
258 260 264 268 274 280 284 281 273 263 252 240 228 219 214 211 209 208 206 204 202 201 200 201 202 201 199 199 198 198 200 201 201 203 203 203 204 204 204 204 205 205 206 206 206 207 208 209 210 213 215 218 220 222 224 225 226 227 226 223 223 223 222 222 221 221 224 227 228 230 231 231 229 226 228 232 234 234 234 235 237 240 243 246 248 251 254 257
254 258 263 269 276 283 283 277 266 252 239 227 218 211 207 205 204 203 203 202 200 199 198 198 198 197 197 197 196 194 196 198 199 201 202 202 201 202 203 204 204 205 205 206 206 207 208 209 211 213 215 218 220 222 224 225 227 228 225 222 221 220 220 221 221 222 224 226 228 229 230 230 228 226 228 232 234 234 234 235 238 241 243 246 249 252 254 258
251 256 263 270 279 283 280 268 254 241 229 219 212 206 202 201 200 199 198 199 198 197 196 195 195 194 195 196 195 193 192 194 197 199 199 199 200 201 202 203 204 205 205 206 207 208 209 210 212 215 217 219 221 223 225 226 227 226 224 222 222 221 220 220 220 221 223 226 227 228 229 228 226 224 228 232 234 234 234 235 238 242 244 247 250 253 255 258
248 256 264 273 281 282 272 256 242 230 220 212 205 200 199 197 196 195 194 195 195 194 194 193 192 192 192 194 195 193 191 192 194 195 196 196 198 199 201 202 203 204 206 207 209 210 211 213 214 216 219 221 223 225 225 225 223 221 220 220 221 222 221 221 221 221 222 224 226 227 227 227 225 223 226 231 234 234 234 236 239 243 245 248 250 253 255 258
246 255 265 276 282 277 260 241 227 217 208 202 197 194 193 192 191 191 190 191 192 191 191 191 190 190 190 191 193 193 193 191 190 192 194 195 195 197 199 201 202 204 206 207 210 211 213 215 217 219 221 223 223 223 222 221 219 218 217 216 216 218 218 220 222 222 223 224 226 227 227 226 225 224 226 231 235 235 235 237 240 242 245 247 250 252 255 258
244 254 267 276 277 263 239 219 205 197 190 186 185 183 182 182 182 184 186 187 188 188 188 188 189 189 188 189 189 191 193 191 189 189 191 192 194 196 197 198 199 201 204 206 209 211 213 216 217 219 220 220 219 218 217 216 215 214 214 214 215 215 215 218 220 221 223 225 226 228 228 227 227 226 228 233 235 234 234 236 239 242 245 248 250 252 255 258
242 254 266 271 260 234 211 194 180 175 174 175 174 173 173 173 173 175 178 181 183 184 184 185 187 188 188 188 187 188 190 190 189 189 190 191 194 195 194 195 196 198 201 203 205 207 210 212 213 215 216 216 215 214 213 213 213 212 212 214 216 217 217 219 220 220 223 225 227 229 228 227 226 227 230 233 235 234 235 237 240 242 245 247 249 252 255 257
239 252 260 252 226 203 185 171 164 165 167 167 166 164 163 162 162 164 168 172 177 180 181 183 185 187 188 188 187 186 186 188 189 189 189 191 193 194 193 193 194 195 197 199 200 202 206 207 207 209 211 211 211 212 212 212 212 212 212 214 216 218 219 221 222 223 223 225 227 228 227 226 226 227 230 234 235 235 236 238 240 242 245 247 249 252 254 257
237 248 245 218 195 184 170 161 161 162 161 159 157 154 151 152 153 154 158 163 169 173 177 179 182 184 186 187 186 185 186 188 188 188 189 191 192 192 192 193 193 195 196 196 196 198 200 201 202 203 205 205 206 208 210 212 212 212 213 214 216 217 219 222 224 225 225 226 228 229 227 227 227 229 231 234 235 236 237 239 241 243 245 247 250 252 254 257
234 240 224 195 179 171 163 160 160 159 156 152 149 145 143 145 147 148 152 156 161 166 171 175 180 182 185 186 185 185 187 188 189 189 190 191 191 190 191 193 194 195 196 196 196 197 197 198 200 201 203 203 204 204 207 209 210 211 213 214 215 216 218 221 224 225 226 226 227 228 227 227 228 230 233 234 235 235 237 239 241 243 245 248 250 252 254 257
221 207 192 182 172 163 159 159 157 155 153 149 144 141 140 140 143 146 147 149 152 156 160 167 175 181 183 184 185 186 188 189 189 190 191 191 191 191 192 194 196 196 197 197 198 198 198 198 200 201 203 204 206 207 207 208 209 210 212 213 215 216 218 221 224 225 226 227 227 227 227 226 227 230 233 235 235 236 237 239 242 244 246 248 250 252 255 258
199 181 174 173 166 158 156 156 154 154 152 147 142 142 139 137 139 141 140 141 144 146 149 154 164 174 180 182 184 185 187 189 190 191 193 192 191 192 194 195 197 198 198 199 200 201 201 201 201 203 204 206 207 209 210 210 210 211 211 213 216 218 220 223 225 227 227 228 228 228 227 227 228 230 233 235 235 237 238 240 242 244 246 248 250 253 255 258
181 172 169 166 161 156 154 154 153 154 151 145 144 145 140 136 137 137 136 139 142 141 141 145 151 159 168 175 180 182 184 188 190 190 192 193 192 193 195 196 197 199 201 202 203 204 205 205 205 205 206 206 207 208 210 211 211 212 213 214 217 220 223 225 227 228 228 228 229 228 227 228 230 232 233 235 236 237 239 241 242 244 246 249 251 254 256 257
170 169 167 162 157 154 152 151 154 155 150 145 148 150 144 138 137 136 137 140 142 140 138 138 142 146 153 163 173 178 180 184 187 187 189 192 192 191 194 196 197 199 201 203 205 205 206 206 207 207 207 207 206 207 208 209 210 212 214 216 219 222 224 226 227 228 227 227 228 228 227 228 230 233 234 235 236 237 239 241 243 245 247 250 252 253 255 257
166 168 166 159 153 151 150 152 156 155 149 146 150 154 150 143 140 139 139 140 140 140 138 138 140 143 146 152 161 169 172 177 182 183 184 188 190 189 190 192 194 195 196 198 200 201 201 201 203 204 205 205 206 206 208 210 211 213 215 218 221 223 225 226 227 227 227 227 227 228 228 229 230 233 235 236 236 237 239 242 244 246 248 249 251 253 255 258
Height
10609 10610 10610 10610 10611 10612 10613 10613 10614 10615 10616 10618 10619 10620 10622 10623 10625 10627 10630 10633 10636 10639 10643 10645 10648 10651 10654 10656 10658 10660 10664 10666 10668 10670 10668 10672 10683 10689 10692 10695 10698 10702 10706 10710 10715 10720 10725 10728 10732 10736 10740 10744 10748 10751 10754 10758 10761 10764 10766 10767 10767 10765 10769 10777 10781 10784 10788 10788 10790 10792 10794 10795 10796 10796 10797 10797 10799 10800 10802 10804 10805 10807 10808 10810 10812 10813 10816 10818
10601 10601 10601 10602 10603 10603 10604 10605 10605 10606 10608 10609 10610 10612 10613 10615 10617 10619 10622 10624 10628 10631 10634 10637 10640 10643 10646 10649 10651 10653 10657 10659 10662 10661 10659 10668 10679 10681 10685 10689 10690 10694 10698 10703 10708 10713 10718 10722 10726 10729 10734 10737 10741 10745 10748 10752 10755 10758 10759 10760 10759 10758 10766 10773 10776 10780 10782 10783 10785 10788 10789 10791 10791 10792 10793 10793 10794 10795 10797 10798 10801 10802 10804 10806 10807 10810 10812 10814
10593 10593 10593 10593 10594 10595 10596 10596 10597 10598 10599 10600 10602 10603 10605 10607 10608 10611 10613 10616 10619 10622 10625 10628 10631 10635 10638 10641 10643 10647 10650 10652 10655 10652 10652 10664 10671 10673 10678 10682 10683 10687 10692 10697 10701 10706 10711 10715 10719 10722 10726 10730 10734 10738 10742 10746 10749 10751 10753 10753 10750 10754 10763 10769 10772 10775 10777 10779 10781 10783 10785 10786 10787 10788 10788 10790 10790 10791 10792 10794 10796 10798 10800 10802 10804 10807 10808 10810
10585 10585 10585 10585 10586 10586 10588 10588 10588 10590 10590 10592 10593 10595 10596 10598 10600 10602 10605 10608 10611 10614 10617 10619 10623 10627 10629 10633 10635 10639 10642 10645 10647 10643 10646 10657 10662 10666 10672 10675 10677 10680 10686 10691 10695 10699 10704 10708 10712 10715 10719 10723 10727 10731 10736 10738 10742 10745 10745 10744 10743 10750 10759 10763 10767 10770 10772 10774 10776 10778 10780 10781 10782 10783 10784 10785 10785 10786 10788 10790 10792 10794 10796 10798 10801 10803 10804 10805
10577 10577 10577 10577 10577 10578 10579 10580 10580 10581 10582 10583 10585 10586 10587 10590 10592 10594 10597 10600 10603 10606 10609 10612 10615 10618 10621 10624 10627 10631 10634 10637 10640 10637 10640 10649 10655 10661 10665 10669 10671 10673 10679 10684 10688 10692 10696 10701 10704 10708 10712 10716 10720 10724 10728 10731 10735 10737 10736 10736 10738 10747 10755 10759 10762 10764 10767 10770 10772 10773 10774 10776 10777 10778 10779 10780 10781 10782 10783 10786 10788 10789 10792 10794 10797 10799 10800 10800
10569 10568 10568 10568 10569 10570 10570 10571 10572 10572 10573 10575 10576 10578 10579 10581 10583 10586 10589 10592 10595 10598 10601 10604 10607 10611 10613 10616 10620 10624 10626 10629 10633 10631 10632 10642 10649 10654 10658 10662 10664 10666 10672 10677 10681 10685 10689 10693 10697 10700 10704 10708 10712 10717 10721 10724 10728 10730 10729 10730 10735 10744 10750 10753 10756 10759 10762 10765 10766 10768 10769 10771 10772 10773 10774 10775 10777 10778 10779 10781 10783 10785 10788 10791 10792 10794 10795 10796
10560 10560 10559 10559 10560 10560 10561 10562 10563 10564 10565 10566 10568 10570 10571 10573 10575 10578 10581 10584 10587 10589 10593 10596 10599 10603 10606 10609 10612 10616 10619 10622 10624 10623 10625 10634 10641 10646 10650 10655 10657 10660 10665 10670 10674 10678 10682 10686 10690 10693 10697 10701 10705 10710 10714 10718 10722 10723 10723 10724 10731 10740 10745 10748 10751 10754 10757 10759 10761 10763 10764 10766 10767 10768 10769 10770 10772 10773 10775 10776 10779 10781 10784 10786 10787 10788 10790 10792
10551 10551 10551 10551 10551 10551 10552 10552 10553 10555 10556 10558 10559 10561 10563 10565 10567 10570 10572 10576 10579 10581 10586 10588 10592 10595 10598 10602 10605 10609 10614 10611 10613 10617 10619 10625 10633 10639 10644 10648 10651 10653 10658 10663 10667 10672 10676 10680 10684 10687 10690 10694 10697 10702 10708 10711 10715 10716 10716 10719 10727 10735 10739 10743 10746 10749 10752 10754 10756 10758 10759 10761 10762 10763 10764 10766 10767 10769 10770 10772 10775 10778 10780 10781 10782 10784 10786 10789
10542 10542 10542 10542 10542 10542 10542 10543 10544 10545 10547 10548 10550 10552 10554 10556 10559 10562 10564 10567 10570 10574 10578 10580 10584 10587 10591 10595 10597 10603 10606 10599 10604 10612 10612 10616 10624 10631 10637 10641 10644 10646 10650 10656 10661 10667 10671 10673 10676 10678 10682 10686 10689 10696 10702 10705 10709 10709 10709 10715 10724 10730 10734 10738 10740 10744 10747 10749 10751 10752 10754 10755 10757 10758 10758 10761 10763 10765 10766 10767 10770 10773 10775 10776 10776 10779 10783 10785
10531 10531 10532 10532 10532 10532 10532 10533 10534 10535 10537 10539 10540 10543 10545 10547 10550 10553 10556 10559 10562 10566 10569 10573 10576 10579 10584 10587 10590 10597 10595 10588 10597 10605 10604 10609 10616 10623 10630 10634 10638 10640 10643 10649 10655 10659 10662 10665 10668 10673 10677 10681 10685 10691 10696 10700 10703 10703 10705 10712 10719 10725 10730 10733 10736 10739 10741 10743 10745 10747 10749 10751 10751 10751 10753 10757 10760 10761 10762 10762 10765 10769 10771 10771 10772 10775 10778 10781
10521 10521 10521 10521 10521 10522 10522 10523 10524 10525 10526 10528 10530 10533 10535 10538 10541 10544 10547 10550 10553 10557 10561 10564 10567 10572 10576 10579 10585 10589 10582 10580 10590 10596 10598 10603 10607 10614 10621 10626 10630 10633 10636 10642 10647 10652 10655 10660 10665 10668 10673 10676 10679 10684 10689 10694 10695 10696 10700 10707 10714 10720 10725 10727 10730 10732 10735 10737 10739 10741 10743 10745 10744 10744 10750 10755 10756 10756 10756 10758 10762 10765 10766 10766 10768 10771 10774 10776
10510 10510 10509 10510 10510 10510 10510 10511 10512 10514 10515 10517 10520 10522 10525 10528 10531 10534 10537 10541 10544 10548 10552 10555 10559 10564 10567 10573 10579 10576 10571 10574 10583 10588 10592 10596 10599 10605 10612 10618 10622 10625 10629 10635 10640 10645 10650 10656 10660 10663 10667 10669 10672 10678 10683 10687 10689 10691 10695 10702 10709 10715 10719 10721 10723 10725 10728 10731 10733 10736 10737 10737 10737 10741 10748 10750 10750 10751 10752 10755 10759 10761 10760 10761 10764 10766 10768 10771
10499 10498 10497 10497 10497 10497 10498 10499 10500 10502 10504 10506 10509 10512 10515 10518 10521 10525 10528 10532 10535 10538 10542 10546 10551 10555 10560 10567 10567 10562 10565 10569 10574 10580 10584 10587 10591 10597 10603 10609 10614 10617 10622 10628 10634 10640 10645 10650 10653 10658 10661 10663 10668 10674 10678 10681 10684 10685 10689 10696 10703 10709 10711 10714 10717 10719 10722 10724 10727 10730 10729 10730 10734 10739 10743 10744 10745 10746 10748 10752 10754 10755 10755 10756 10759 10761 10763 10765
10487 10485 10484 10484 10484 10484 10485 10486 10488 10489 10492 10495 10498 10501 10504 10507 10511 10515 10519 10522 10525 10529 10533 10537 10542 10545 10553 10558 10553 10553 10560 10562 10565 10571 10575 10579 10583 10589 10595 10600 10604 10609 10615 10621 10629 10634 10638 10643 10648 10653 10655 10658 10664 10668 10671 10675 10677 10678 10683 10690 10698 10702 10704 10708 10710 10713 10716 10718 10722 10722 10722 10726 10731 10735 10738 10739 10740 10741 10745 10748 10748 10749 10750 10751 10754 10756 10758 10760
10474 10472 10471 10470 10470 10470 10471 10472 10474 10476 10479 10482 10486 10489 10493 10497 10501 10505 10508 10512 10516 10520 10524 10528 10533 10537 10545 10546 10541 10546 10552 10553 10557 10561 10567 10573 10575 10581 10588 10591 10596 10602 10607 10615 10622 10626 10631 10636 10642 10647 10649 10653 10657 10660 10664 10669 10670 10673 10677 10684 10692 10695 10698 10702 10704 10707 10709 10712 10716 10715 10716 10723 10727 10730 10734 10735 10735 10737 10740 10742 10742 10743 10745 10747 10749 10752 10753 10754
10462 10459 10458 10457 10456 10456 10457 10458 10460 10463 10466 10470 10473 10477 10481 10486 10489 10493 10497 10501 10506 10510 10515 10519 10523 10528 10534 10534 10533 10538 10544 10545 10547 10552 10561 10566 10568 10574 10580 10584 10589 10595 10601 10608 10615 10619 10625 10630 10636 10641 10644 10648 10652 10655 10659 10663 10665 10668 10671 10679 10685 10688 10693 10695 10696 10701 10703 10706 10710 10708 10712 10719 10723 10726 10730 10730 10730 10733 10735 10736 10737 10738 10739 10742 10745 10747 10749 10749
10448 10446 10444 10443 10443 10442 10443 10444 10446 10449 10452 10456 10460 10465 10469 10473 10477 10482 10486 10491 10495 10500 10505 10510 10514 10519 10524 10524 10524 10529 10535 10537 10539 10547 10554 10558 10562 10567 10572 10578 10582 10587 10594 10601 10607 10613 10619 10625 10630 10635 10639 10643 10647 10651 10655 10658 10662 10664 10667 10674 10679 10682 10686 10688 10690 10694 10697 10700 10703 10704 10708 10714 10718 10722 10724 10725 10726 10728 10730 10731 10732 10732 10734 10737 10741 10742 10744 10745
10436 10434 10432 10431 10430 10429 10429 10430 10432 10435 10439 10443 10448 10453 10456 10460 10465 10470 10475 10479 10484 10489 10495 10499 10503 10508 10512 10512 10514 10520 10525 10528 10532 10539 10545 10550 10555 10559 10564 10569 10573 10579 10586 10593 10599 10606 10613 10619 10623 10628 10634 10639 10644 10648 10651 10653 10656 10658 10662 10668 10671 10675 10679 10680 10684 10688 10691 10695 10698 10701 10704 10708 10714 10718 10718 10720 10722 10723 10725 10726 10726 10727 10729 10733 10737 10738 10739 10740
10425 10422 10420 10419 10418 10417 10417 10417 10419 10422 10425 10430 10435 10439 10443 10447 10452 10457 10463 10468 10473 10478 10483 10487 10491 10496 10500 10502 10505 10510 10515 10520 10524 10530 10537 10542 10547 10551 10556 10561 10566 10573 10579 10586 10592 10599 10606 10612 10617 10625 10632 10636 10640 10642 10644 10647 10650 10651 10655 10659 10662 10667 10671 10674 10679 10683 10686 10690 10693 10697 10698 10703 10710 10712 10713 10716 10718 10719 10720 10721 10721 10722 10725 10729 10732 10733 10734 10735
10414 10411 10409 10408 10407 10406 10405 10406 10407 10410 10414 10418 10422 10425 10429 10434 10439 10445 10451 10456 10461 10466 10472 10476 10480 10484 10489 10493 10497 10501 10506 10512 10517 10523 10529 10534 10539 10544 10548 10554 10560 10566 10573 10579 10585 10592 10599 10605 10613 10621 10626 10629 10632 10634 10637 10641 10643 10644 10647 10652 10656 10661 10664 10669 10674 10677 10680 10685 10689 10691 10692 10698 10705 10706 10709 10712 10713 10714 10714 10715 10717 10718 10721 10725 10728 10729 10729 10731
10403 10401 10400 10398 10396 10395 10394 10395 10396 10399 10402 10406 10409 10412 10417 10421 10427 10432 10438 10444 10449 10455 10461 10465 10470 10475 10479 10484 10486 10490 10498 10504 10509 10515 10521 10526 10532 10537 10542 10548 10555 10561 10566 10571 10577 10584 10591 10600 10608 10614 10617 10620 10622 10625 10630 10634 10635 10637 10641 10646 10651 10655 10659 10664 10668 10671 10676 10681 10684 10685 10686 10693 10700 10702 10705 10706 10707 10708 10709 10711 10712 10714 10716 10720 10723 10724 10725 10727
10394 10392 10390 10388 10387 10385 10385 10385 10386 10388 10392 10395 10397 10400 10404 10409 10414 10420 10425 10432 10437 10443 10449 10454 10460 10464 10468 10472 10475 10482 10490 10494 10499 10506 10513 10519 10525 10530 10536 10542 10549 10554 10558 10563 10570 10577 10586 10596 10601 10605 10610 10613 10615 10620 10625 10627 10629 10632 10636 10641 10645 10650 10655 10660 10663 10667 10671 10676 10678 10679 10682 10688 10694 10698 10700 10700 10701 10703 10704 10706 10707 10709 10711 10715 10719 10720 10721 10722
10385 10383 10381 10380 10378 10376 10376 10376 10377 10379 10382 10384 10386 10389 10393 10397 10402 10408 10415 10421 10426 10433 10439 10444 10449 10452 10455 10460 10466 10474 10481 10485 10491 10498 10506 10512 10517 10523 10529 10535 10540 10545 10550 10557 10564 10571 10581 10588 10593 10598 10602 10605 10610 10616 10620 10623 10625 10627 10631 10636 10640 10645 10650 10653 10657 10662 10666 10670 10673 10673 10677 10683 10689 10695 10696 10695 10696 10698 10700 10701 10702 10704 10707 10710 10714 10716 10717 10718
10376 10374 10373 10371 10370 10369 10368 10369 10370 10371 10373 10374 10376 10379 10382 10386 10393 10399 10405 10410 10416 10423 10429 10433 10438 10441 10445 10451 10458 10467 10472 10476 10483 10491 10498 10503 10509 10516 10521 10526 10531 10537 10544 10550 10556 10564 10572 10578 10584 10589 10592 10598 10605 10609 10614 10618 10621 10623 10626 10630 10636 10640 10644 10647 10653 10657 10661 10664 10666 10668 10672 10678 10685 10690 10691 10691 10692 10694 10695 10696 10697 10699 10702 10705 10708 10711 10713 10714
10367 10366 10365 10364 10362 10361 10361 10362 10362 10363 10364 10366 10368 10370 10373 10378 10384 10390 10395 10401 10406 10412 10417 10423 10428 10430 10434 10443 10452 10458 10462 10468 10476 10483 10490 10495 10502 10508 10512 10517 10523 10530 10536 10541 10548 10555 10562 10571 10577 10578 10583 10592 10598 10602 10608 10612 10615 10617 10620 10625 10631 10634 10638 10644 10649 10651 10655 10659 10660 10663 10667 10675 10681 10684 10686 10687 10688 10689 10690 10691 10692 10694 10697 10700 10703 10706 10708 10711
10359 10358 10357 10356 10355 10354 10354 10355 10355 10356 10357 10358 10361 10363 10366 10371 10376 10381 10387 10391 10396 10401 10407 10413 10416 10418 10426 10437 10444 10446 10452 10460 10467 10473 10480 10486 10492 10498 10503 10509 10516 10521 10527 10533 10539 10545 10555 10565 10568 10572 10579 10585 10590 10595 10600 10605 10609 10612 10614 10619 10624 10628 10634 10640 10643 10646 10650 10653 10654 10657 10663 10671 10675 10678 10681 10682 10684 10684 10685 10686 10687 10689 10692 10695 10698 10701 10703 10706
10351 10351 10350 10349 10348 10347 10348 10348 10348 10350 10350 10352 10354 10356 10359 10363 10367 10373 10377 10380 10386 10391 10397 10403 10405 10410 10420 10429 10432 10437 10445 10452 10457 10465 10472 10477 10483 10489 10496 10502 10507 10513 10519 10525 10531 10540 10552 10559 10561 10568 10575 10579 10585 10590 10594 10599 10603 10605 10609 10614 10618 10623 10629 10633 10636 10641 10644 10647 10649 10652 10660 10665 10668 10672 10676 10677 10679 10680 10680 10681 10683 10685 10687 10690 10693 10695 10698 10700
10344 10344 10343 10342 10341 10341 10341 10341 10342 10343 10344 10345 10347 10349 10351 10354 10358 10364 10367 10371 10377 10381 10387 10393 10396 10402 10412 10418 10423 10430 10437 10441 10448 10456 10461 10466 10474 10480 10486 10493 10500 10506 10511 10518 10526 10537 10546 10551 10557 10565 10569 10574 10580 10584 10589 10593 10596 10600 10605 10607 10611 10617 10622 10627 10631 10635 10639 10642 10643 10649 10656 10660 10662 10667 10670 10673 10675 10675 10676 10678 10679 10680 10682 10685 10687 10689 10692 10694
10337 10337 10336 10335 10334 10334 10334 10335 10337 10337 10338 10339 10340 10341 10343 10346 10350 10355 10358 10363 10367 10371 10377 10382 10386 10394 10402 10409 10415 10421 10425 10431 10439 10445 10450 10458 10466 10472 10479 10486 10492 10498 10504 10511 10519 10529 10537 10544 10550 10556 10561 10566 10571 10576 10581 10585 10590 10596 10598 10601 10606 10612 10618 10623 10627 10631 10635 10637 10640 10646 10652 10653 10656 10661 10665 10668 10670 10670 10672 10674 10675 10676 10678 10680 10682 10684 10686 10688
10330 10330 10329 10328 10327 10327 10328 10329 10330 10331 10332 10332 10332 10333 10335 10338 10342 10346 10350 10356 10359 10363 10368 10372 10378 10387 10394 10401 10407 10411 10415 10424 10432 10437 10443 10451 10458 10464 10471 10477 10482 10489 10497 10503 10510 10520 10528 10534 10541 10547 10552 10556 10561 10566 10571 10577 10584 10589 10592 10597 10601 10606 10613 10618 10621 10626 10630 10632 10637 10642 10646 10648 10650 10654 10660 10663 10664 10665 10667 10669 10670 10671 10673 10675 10677 10678 10680 10682
10323 10323 10322 10321 10321 10321 10322 10322 10323 10324 10324 10324 10322 10324 10326 10329 10334 10338 10343 10348 10351 10354 10360 10365 10372 10381 10388 10393 10397 10401 10410 10419 10426 10431 10439 10447 10452 10458 10464 10470 10476 10483 10490 10496 10506 10516 10520 10526 10534 10542 10546 10550 10555 10561 10566 10573 10579 10583 10588 10593 10597 10602 10607 10612 10616 10622 10626 10629 10633 10637 10640 10644 10644 10648 10655 10658 10658 10661 10663 10665 10666 10667 10668 10670 10671 10672 10674 10676
10316 10316 10315 10315 10315 10315 10315 10315 10315 10315 10315 10314 10313 10315 10318 10321 10325 10329 10335 10340 10343 10347 10353 10359 10367 10374 10379 10383 10387 10395 10406 10414 10420 10428 10436 10443 10450 10456 10462 10468 10476 10483 10489 10496 10506 10513 10515 10523 10532 10537 10541 10546 10551 10558 10564 10570 10575 10579 10585 10588 10593 10598 10602 10608 10614 10620 10623 10625 10629 10631 10634 10638 10639 10643 10650 10652 10655 10657 10659 10660 10662 10662 10664 10664 10666 10667 10669 10671
10309 10309 10309 10309 10309 10309 10309 10308 10306 10306 10306 10305 10304 10306 10309 10312 10316 10320 10326 10331 10335 10341 10348 10355 10362 10368 10373 10378 10384 10393 10402 10409 10416 10423 10430 10437 10444 10451 10458 10465 10472 10480 10487 10495 10503 10507 10511 10520 10527 10532 10538 10543 10549 10556 10563 10568 10573 10577 10582 10586 10590 10594 10599 10607 10613 10617 10618 10621 10625 10626 10628 10633 10635 10639 10644 10648 10651 10652 10654 10656 10657 10657 10658 10659 10660 10662 10664 10666
10303 10303 10303 10303 10303 10303 10302 10300 10299 10298 10298 10297 10297 10299 10301 10304 10308 10312 10317 10322 10327 10334 10342 10349 10356 10362 10368 10375 10383 10393 10400 10406 10411 10418 10425 10432 10439 10445 10453 10460 10467 10473 10479 10486 10495 10501 10509 10519 10526 10532 10538 10542 10548 10555 10559 10563 10566 10570 10575 10580 10584 10589 10596 10602 10607 10610 10612 10616 10619 10620 10623 10629 10632 10635 10640 10644 10645 10647 10649 10650 10651 10652 10652 10654 10656 10657 10659 10661
10296 10297 10297 10297 10297 10296 10295 10294 10292 10291 10291 10291 10292 10293 10296 10299 10302 10305 10308 10313 10320 10328 10336 10344 10351 10357 10364 10372 10381 10390 10397 10402 10409 10416 10422 10429 10436 10443 10451 10457 10463 10470 10475 10482 10490 10498 10507 10516 10522 10528 10534 10539 10544 10549 10553 10556 10559 10563 10568 10573 10578 10583 10589 10595 10599 10603 10606 10610 10612 10615 10620 10624 10627 10631 10635 10638 10639 10642 10644 10645 10646 10646 10647 10649 10651 10653 10655 10656
10290 10291 10292 10291 10291 10290 10289 10287 10286 10285 10285 10286 10288 10289 10292 10294 10297 10299 10302 10307 10314 10322 10330 10338 10344 10352 10360 10369 10379 10387 10392 10399 10406 10413 10419 10425 10432 10439 10446 10452 10460 10466 10472 10480 10488 10494 10501 10508 10515 10522 10527 10532 10537 10543 10547 10549 10554 10559 10564 10569 10574 10578 10584 10590 10594 10597 10601 10603 10607 10611 10616 10619 10622 10626 10629 10632 10634 10636 10638 10639 10640 10641 10642 10645 10646 10648 10650 10650
10285 10286 10286 10285 10285 10284 10283 10282 10280 10280 10281 10282 10284 10286 10288 10290 10292 10294 10298 10304 10310 10317 10325 10332 10339 10348 10358 10366 10375 10383 10390 10397 10403 10409 10416 10423 10429 10435 10441 10448 10455 10461 10467 10476 10483 10490 10496 10503 10510 10515 10520 10525 10531 10535 10538 10542 10549 10554 10558 10564 10569 10574 10580 10584 10587 10592 10596 10598 10603 10608 10612 10615 10618 10621 10624 10627 10629 10630 10631 10632 10634 10635 10637 10640 10642 10643 10645 10645
10279 10280 10280 10280 10280 10279 10278 10277 10276 10277 10277 10278 10280 10282 10284 10286 10288 10291 10296 10301 10306 10313 10321 10328 10337 10347 10356 10363 10370 10378 10386 10394 10401 10407 10413 10419 10426 10433 10439 10444 10449 10455 10463 10471 10477 10484 10490 10497 10503 10508 10514 10519 10524 10528 10532 10539 10546 10549 10553 10559 10564 10570 10575 10577 10582 10588 10591 10595 10601 10605 10608 10610 10612 10616 10619 10621 10622 10624 10624 10626 10628 10630 10633 10635 10637 10639 10640 10640
10274 10275 10275 10275 10275 10274 10274 10273 10273 10273 10273 10275 10276 10278 10280 10283 10286 10289 10294 10299 10304 10310 10318 10326 10336 10346 10354 10360 10367 10374 10382 10390 10398 10404 10410 10417 10423 10429 10434 10440 10446 10453 10460 10467 10473 10478 10485 10492 10497 10503 10509 10513 10518 10524 10530 10538 10542 10545 10550 10556 10559 10564 10568 10572 10578 10584 10587 10592 10597 10599 10601 10604 10607 10611 10613 10615 10616 10617 10618 10621 10623 10625 10628 10630 10632 10634 10635 10635
10269 10269 10270 10270 10270 10270 10270 10269 10269 10269 10270 10272 10274 10276 10278 10281 10284 10288 10293 10298 10303 10309 10316 10324 10334 10344 10351 10359 10366 10372 10378 10386 10393 10399 10407 10413 10419 10425 10431 10437 10443 10451 10457 10464 10469 10475 10481 10487 10493 10499 10504 10509 10516 10523 10530 10535 10538 10542 10549 10553 10557 10561 10565 10570 10575 10579 10583 10587 10590 10593 10595 10597 10601 10604 10606 10608 10609 10610 10613 10616 10617 10620 10623 10626 10627 10629 10630 10630
10264 10265 10266 10266 10266 10266 10266 10266 10266 10267 10268 10270 10272 10275 10277 10280 10284 10288 10292 10297 10302 10309 10316 10324 10333 10341 10350 10358 10366 10371 10376 10382 10389 10397 10404 10410 10416 10423 10429 10434 10441 10448 10455 10461 10466 10472 10479 10485 10490 10497 10502 10509 10516 10522 10526 10529 10533 10538 10543 10547 10553 10557 10562 10568 10571 10575 10579 10581 10584 10586 10587 10590 10594 10597 10601 10602 10603 10605 10610 10612 10613 10616 10619 10620 10622 10623 10624 10625
10260 10261 10262 10263 10262 10262 10262 10263 10264 10265 10267 10269 10272 10275 10278 10281 10285 10288 10292 10297 10302 10309 10316 10324 10332 10340 10348 10356 10364 10371 10377 10382 10389 10396 10402 10409 10415 10421 10425 10431 10438 10445 10451 10458 10464 10471 10478 10483 10488 10495 10501 10507 10512 10516 10519 10523 10528 10532 10536 10540 10545 10549 10555 10561 10565 10570 10574 10575 10577 10579 10580 10585 10588 10592 10597 10598 10598 10603 10607 10608 10609 10611 10613 10615 10617 10617 10618 10619
10257 10258 10259 10259 10259 10260 10260 10261 10262 10264 10267 10269 10272 10275 10278 10282 10285 10289 10294 10298 10304 10310 10317 10324 10332 10339 10346 10353 10361 10370 10377 10383 10388 10394 10400 10407 10412 10416 10421 10428 10435 10441 10448 10455 10461 10469 10475 10479 10486 10492 10496 10500 10503 10507 10512 10517 10521 10525 10530 10536 10540 10545 10551 10555 10559 10564 10567 10569 10572 10573 10576 10582 10585 10588 10592 10593 10595 10599 10601 10602 10604 10606 10608 10610 10611 10612 10612 10614
10254 10255 10256 10257 10257 10257 10258 10260 10262 10264 10267 10270 10272 10276 10279 10283 10287 10291 10296 10300 10306 10311 10317 10324 10331 10338 10345 10352 10359 10367 10375 10383 10388 10394 10400 10405 10409 10414 10421 10427 10433 10439 10446 10452 10459 10466 10471 10476 10481 10486 10489 10494 10498 10503 10507 10512 10518 10523 10528 10533 10538 10544 10548 10550 10554 10558 10561 10565 10567 10568 10573 10578 10580 10583 10586 10588 10591 10594 10595 10597 10599 10600 10603 10604 10605 10606 10607 10609
10251 10253 10253 10254 10255 10256 10258 10260 10262 10265 10267 10270 10273 10277 10281 10285 10288 10292 10297 10301 10306 10312 10318 10324 10331 10339 10346 10353 10359 10366 10373 10381 10387 10393 10398 10403 10407 10414 10421 10426 10432 10438 10444 10450 10456 10462 10467 10472 10477 10482 10487 10493 10498 10503 10508 10513 10518 10523 10526 10531 10535 10540 10544 10547 10551 10554 10557 10561 10562 10563 10569 10573 10574 10577 10580 10583 10586 10588 10590 10592 10593 10595 10597 10598 10599 10600 10601 10602
10249 10250 10251 10252 10254 10256 10258 10260 10262 10265 10268 10272 10275 10279 10283 10287 10290 10294 10298 10302 10307 10312 10318 10324 10331 10339 10346 10353 10360 10366 10372 10378 10384 10389 10394 10400 10406 10414 10421 10426 10432 10437 10443 10449 10455 10460 10465 10469 10474 10479 10483 10488 10494 10500 10506 10511 10515 10519 10523 10528 10532 10536 10541 10544 10547 10550 10553 10556 10557 10560 10565 10567 10569 10572 10575 10578 10580 10582 10584 10585 10587 10589 10591 10592 10593 10595 10595 10597
10247 10249 10250 10251 10253 10257 10260 10261 10264 10267 10270 10274 10278 10281 10285 10289 10292 10296 10300 10304 10308 10313 10319 10325 10331 10338 10345 10353 10359 10365 10371 10377 10383 10389 10394 10400 10407 10414 10420 10425 10431 10436 10443 10449 10454 10458 10463 10467 10472 10475 10480 10484 10489 10494 10499 10504 10509 10514 10519 10524 10528 10532 10536 10539 10540 10544 10548 10550 10552 10555 10558 10561 10564 10567 10570 10572 10574 10576 10578 10580 10582 10584 10585 10586 10588 10589 10590 10592
10246 10248 10250 10252 10254 10258 10261 10264 10266 10270 10273 10276 10279 10283 10287 10291 10295 10299 10303 10307 10311 10316 10320 10326 10332 10338 10345 10352 10358 10365 10372 10379 10385 10391 10396 10402 10408 10414 10420 10424 10430 10436 10442 10448 10452 10457 10461 10465 10469 10473 10478 10483 10487 10491 10495 10499 10504 10509 10514 10519 10523 10527 10531 10533 10535 10539 10542 10545 10546 10548 10552 10556 10559 10562 10564 10566 10568 10571 10573 10575 10577 10578 10579 10581 10582 10583 10586 10588
10245 10247 10249 10252 10256 10259 10262 10266 10269 10273 10276 10278 10282 10285 10289 10295 10299 10303 10307 10311 10314 10318 10323 10328 10334 10340 10346 10353 10359 10366 10374 10381 10387 10393 10398 10403 10409 10415 10419 10424 10430 10436 10441 10446 10451 10455 10460 10463 10467 10472 10476 10481 10485 10489 10493 10498 10502 10506 10510 10515 10519 10522 10525 10528 10531 10535 10537 10539 10541 10544 10548 10552 10554 10557 10559 10560 10563 10565 10567 10569 10571 10572 10573 10575 10576 10579 10581 10583
10244 10247 10249 10253 10258 10261 10264 10267 10272 10276 10278 10281 10285 10288 10291 10296 10302 10306 10311 10315 10317 10320 10325 10331 10336 10342 10348 10354 10359 10365 10371 10378 10384 10390 10397 10403 10409 10414 10419 10424 10430 10435 10441 10445 10449 10454 10458 10462 10466 10470 10474 10478 10482 10486 10491 10495 10500 10504 10507 10511 10515 10518 10521 10524 10527 10530 10532 10534 10536 10539 10544 10546 10548 10551 10554 10556 10558 10560 10562 10564 10565 10567 10568 10570 10572 10574 10576 10577
10244 10247 10250 10254 10259 10263 10266 10270 10274 10278 10281 10284 10288 10291 10293 10298 10304 10309 10314 10319 10321 10323 10327 10334 10340 10345 10350 10355 10359 10363 10369 10375 10381 10387 10394 10401 10406 10411 10417 10422 10427 10433 10438 10443 10447 10452 10456 10460 10465 10469 10472 10476 10480 10484 10488 10493 10497 10501 10504 10508 10511 10514 10517 10519 10522 10524 10526 10529 10531 10534 10538 10540 10543 10546 10548 10551 10553 10555 10557 10558 10560 10562 10564 10565 10567 10568 10570 10571
10244 10248 10251 10255 10260 10265 10269 10273 10277 10280 10284 10287 10291 10295 10296 10299 10305 10311 10316 10321 10325 10327 10330 10336 10343 10349 10354 10359 10363 10367 10371 10376 10382 10387 10393 10399 10404 10408 10414 10419 10425 10430 10434 10439 10444 10449 10453 10458 10462 10466 10470 10474 10478 10482 10486 10490 10493 10497 10501 10504 10507 10509 10512 10514 10516 10518 10521 10524 10527 10530 10532 10534 10537 10540 10543 10545 10548 10550 10552 10553 10555 10557 10558 10559 10560 10562 10564 10566